Location: Jetmore Motorplex
(37.9889°N, 99.8876°W)
Time: 07:48:27
(UTC+00:00)

CZ-2C R/B - Pass Details

Date: 17 February 2020
Orbit: 667 x 785 km, 98.1° (Epoch: 30 March)

Event Time Altitude Azimuth Distance (km) Brightness Sun altitude
Rises 11:19:39 0° 6° (N) 3,280 5.9 -25.8°
Reaches altitude 10° 11:22:03 10° 2° (N) 2,343 5.1 -25.4°
Enters shadow 11:25:22 36° 338° (NNW) 1,209 3.3 -24.7°
